Regional Weather Roundup
Issued by NWS

Home | Current Version | Previous Version | Graphics & Text | Print | Product List | Glossary On
Versions: 1 2 3 4 5 6 7 8 9 10 11 12 13 14 15 16 17 18 19 20 21 22 23 24 25 26 27 28 29 30 31 32 33 34 35 36 37 38 39 40 41 42 43 44 45 46 47 48 49 50
000
ASUS45 KTFX 180104
RWRMT
MONTANA HOURLY WEATHER ROUNDUP
NATIONAL WEATHER SERVICE GREAT FALLS MT
604 PM MST WED DEC 17 2014

NOTE: "FAIR" INDICATES FEW OR NO CLOUDS BELOW 12000 FEET WITH NO
SIGNIFICANT WEATHER AND/OR OBSTRUCTIONS TO VISIBILITY.

* THESE STATIONS ARE NOT UNDER NWS QUALITY CONTROL. THEY DO NOT
   REPORT WEATHER SUCH AS PRECIPITATION OR FOG.

MTZ001>007-043-180200-
WEST OF THE DIVIDE
CITY           SKY/WX    TMP DP  RH WIND       PRES   REMARKS
KALISPELL      CLOUDY    27  23  85 N3        29.95R
MISSOULA       PTCLDY    28  23  81 N3        29.96R
BUTTE          MOCLDY    18  14  84 S3        29.92R
MULLAN PASS    CLOUDY    27  25  92 VRB5      29.86S WCI  21
* ANACONDA     MOCLDY    28  19  69 N/A        N/A
* ESSEX        N/A       29  26  89 N/A        N/A
* LINCOLN      N/A       26  22  85 SE2        N/A
* LOOKOUT PASS N/A       30  27  89 S1         N/A
* POLSON       N/A       26  25  96 N/A        N/A
* RONAN APT    PTCLDY    30  28  92 N/A        N/A
* SEELEY LAKE  N/A       24  22  92 NE2        N/A
* THOMP F APT  CLOUDY    25  20  81 E1G6       N/A
$$

MTZ008-052>055-180200-
SOUTHWEST MONTANA
CITY           SKY/WX    TMP DP  RH WIND       PRES   REMARKS
BOZEMAN        PTCLDY    23  19  85 S7        29.93R WCI  15
DILLON         MOCLDY    23  16  74 SW13      29.93R WCI  11
* W YELLOWSTON MOCLDY    24  21  88 N/A        N/A
* THREE FORKS  PTCLDY    25   1  35 N/A        N/A
* BOULDER HILL N/A       26  20  78 S7         N/A   WCI  18
* MONIDA PASS  N/A       18  18 100 SE7        N/A   WCI   9
* RAYNOLDS PAS N/A       19   3  49 S8         N/A   WCI   9
* WHITEHALL    N/A       28  22  78 W5G10      N/A   WCI  22
* WISE RIVER   N/A       22  18  85 S2         N/A
$$

MTZ009>010-012-014-046-048-049-054-180200-
EAST SLOPES AND CENTRAL MONTANA
CITY           SKY/WX    TMP DP  RH WIND       PRES   REMARKS
CUT BANK       FOG       16  12  84 CALM      29.85S VSB 1/2
GREAT FALLS    PTCLDY    30  27  89 S10       29.85S WCI  21
HELENA         PTCLDY    27  25  92 CALM      29.92R
* DEARBORN     N/A       31  26  82 SW3        N/A
* EAST GLACIER N/A       32  23  69 W18G25     N/A   WCI  21
* MONARCH      N/A       29  17  61 S6         N/A   WCI  23
* PENDROY      N/A       23  19  85 W2         N/A
* ROGERS PASS  N/A       30  22  72 SE8G14     N/A   WCI  22
* SWEET GRASS  N/A       20  20 100 S10        N/A   WCI   9
$$

MTZ011-013-016-021-035-040-045-047-050-051-180200-
NORTH CENTRAL MONTANA
CITY           SKY/WX    TMP DP  RH WIND       PRES   REMARKS
HAVRE          MOCLDY    21  19  92 E8        29.91F WCI  11
LEWISTOWN      CLOUDY    30  28  92 SE3       29.87S
* N BAR RANCH  CLOUDY    32  27  82 CALM      29.88S
* CHESTER      N/A       25  22  88 SE2        N/A
* DENTON       N/A       31  31 100 N/A        N/A
* GEYSER       N/A       29  21  72 SE1        N/A
* JUDITH GAP   N/A       29  28  96 W9         N/A   WCI  21
* LOMA         N/A       29  26  89 NE8        N/A   WCI  21
$$

MTZ017>020-022>027-061-062-180200-
NORTHEAST MONTANA
CITY           SKY/WX    TMP DP  RH WIND       PRES   REMARKS
GLASGOW        CLOUDY    23  18  81 E10       29.99S WCI  13
GLENDIVE       CLOUDY    21  18  88 SE7       30.02S WCI  12
JORDAN         PTCLDY    27  21  78 SE7       29.95F WCI  19
SIDNEY         CLOUDY    21  16  81 E12       30.08S WCI   9
WOLF POINT     CLOUDY    25  18  75 E8        30.04S WCI  16
* BEAVER HILL  N/A       20  17  88 SE8        N/A   WCI  10
* CIRCLE       N/A       25  22  88 SE2        N/A
* LINDSAY DVD  N/A       20  18  92 SE4        N/A
* NAVAJO       N/A       17  15  92 S11        N/A   WCI   4
* SACO         N/A       23  19  85 NE8        N/A   WCI  14
$$

MTZ028>042-056>058-180200-
SOUTHCENTRAL AND SOUTHEAST MONTANA
CITY           SKY/WX    TMP DP  RH WIND       PRES   REMARKS
BAKER          CLOUDY    19  19 100 SE12      30.00S WCI   6
BILLINGS       CLOUDY    30  23  75 SW18      29.92S WCI  18
LIVINGSTON     PTCLDY    32  21  64 SW9       29.89S WCI  24
MILES CITY     CLOUDY    25  19  78 SE8       29.98S WCI  16
* LAUREL APT   CLOUDY    32  18  56 S5         N/A   WCI  27
* ROUNDUP APT  CLOUDY    30  25  82 N/A        N/A
* ALZADA       N/A       20  18  92 E4         N/A
* HYSHAM       N/A       26  20  78 W2         N/A
* LAME DEER    N/A       26  25  96 N/A        N/A
* REED POINT   N/A       31  27  85 N/A        N/A
* ROSCOE HILL  N/A       29  15  56 SE7        N/A   WCI  22
$$

REGIONAL REPORTS...DAKOTAS
CITY           SKY/WX    TMP DP  RH WIND       PRES   REMARKS
WILLISTON      CLOUDY    19  12  74 SE9       30.09F WCI   8
DICKINSON      CLOUDY    18  14  84 S14       30.05F WCI   4
BEACH          CLOUDY    19  19 100 SE10      30.03S WCI   8
CROSBY         CLOUDY    18  14  84 S14       30.11S WCI   4
WATFORD CITY   CLOUDY    18  14  84 SE13      30.07S WCI   5
BISMARCK       PTCLDY    12  10  92 SE5       30.20S WCI   4
GRAND FORKS    PTCLDY    10   7  88 CALM      30.32S
FARGO          PTCLDY    12   9  88 E5        30.30F WCI   4
BUFFALO SD     PTCLDY    19  18  96 SE12      29.95F WCI   6
RAPID CITY     CLOUDY    21  19  92 NE7       30.02R WCI  12
$$

REGIONAL REPORTS...WYOMING/IDAHO/WASHINGTON
CITY           SKY/WX    TMP DP  RH WIND       PRES   REMARKS
GILLETTE       CLEAR     19  16  88 CALM      29.94S
SHERIDAN       PTCLDY    18  12  77 S3        29.94S
CODY           PTCLDY    18  16  92 CALM      29.91S
YELLOWSTONE LA PTCLDY    19  16  88 CALM      29.96R
SALMON         MOCLDY    25  18  75 SE6       29.99S WCI  18
MULLAN PASS    CLOUDY    27  25  92 VRB5      29.86S WCI  21
SAND POINT     LGT SNOW  34  30  85 CALM      29.96R
SPOKANE        CLOUDY    36  34  92 NE7       29.91R WCI  30

$$



USA.gov is the U.S. government's official web portal to all federal, state and local government web resources and services.